Location: Alsip
(41.6689°N, 87.7387°W)
Time: 13:24:32
(UTC+00:00)

Cosmos 1933 Rocket - Pass Details

Date: 14 July 2020
Orbit: 607 x 629 km, 82.5° (Epoch: 05 August)

Event Time Altitude Azimuth Distance (km) Brightness Sun altitude
Exits shadow 06:51:58 72° 12° (NNE) 643 3.7 -25.5°
Drops below altitude 10° 06:55:53 10° 8° (N) 1,969 7.2 -25.3°
Sets 06:58:07 0° 9° (N) 2,879 8.3 -25.2°
